Precipitable_Water
0.38 0.39 0.40 0.38 0.39 0.41 0.38 0.38 0.31 0.33 0.34 0.41 0.45 0.48 0.49 0.47 0.48 0.49 0.51 0.52 0.52 0.53 0.56 0.62 0.68 0.71 0.71 0.69 0.67 0.66 0.63 0.63 0.63 0.65 0.67 0.68 0.68 0.69 0.69 0.68 0.68 0.66 0.63 0.61
0.34 0.38 0.38 0.34 0.36 0.38 0.38 0.37 0.37 0.37 0.34 0.47 0.49 0.51 0.51 0.48 0.49 0.49 0.50 0.53 0.54 0.54 0.57 0.61 0.66 0.68 0.70 0.67 0.65 0.66 0.65 0.64 0.65 0.66 0.68 0.68 0.67 0.67 0.68 0.67 0.65 0.64 0.60 0.58
0.23 0.31 0.30 0.24 0.29 0.32 0.34 0.37 0.34 0.27 0.27 0.38 0.37 0.41 0.49 0.51 0.49 0.50 0.52 0.53 0.51 0.55 0.58 0.59 0.65 0.70 0.68 0.64 0.65 0.64 0.64 0.65 0.66 0.65 0.64 0.64 0.65 0.65 0.64 0.61 0.61 0.59 0.57 0.55
0.23 0.26 0.15 0.21 0.29 0.28 0.26 0.27 0.32 0.31 0.32 0.35 0.35 0.39 0.42 0.54 0.52 0.52 0.54 0.54 0.56 0.59 0.61 0.62 0.64 0.72 0.70 0.67 0.64 0.62 0.61 0.62 0.63 0.62 0.61 0.62 0.61 0.60 0.59 0.59 0.57 0.56 0.55 0.54
0.21 0.21 0.22 0.22 0.30 0.29 0.26 0.24 0.35 0.34 0.37 0.38 0.39 0.40 0.37 0.47 0.51 0.51 0.55 0.58 0.60 0.65 0.64 0.62 0.64 0.73 0.70 0.67 0.64 0.63 0.62 0.61 0.63 0.62 0.60 0.60 0.60 0.59 0.59 0.57 0.56 0.54 0.51 0.42
0.27 0.20 0.15 0.22 0.33 0.38 0.38 0.23 0.45 0.47 0.44 0.42 0.42 0.29 0.30 0.37 0.48 0.51 0.54 0.57 0.60 0.66 0.65 0.61 0.67 0.72 0.68 0.65 0.63 0.61 0.61 0.59 0.60 0.60 0.58 0.56 0.57 0.57 0.57 0.55 0.52 0.44 0.31 0.29
0.26 0.22 0.23 0.30 0.34 0.37 0.20 0.25 0.42 0.47 0.48 0.46 0.42 0.44 0.46 0.43 0.44 0.51 0.56 0.58 0.63 0.64 0.61 0.62 0.70 0.72 0.66 0.64 0.61 0.62 0.60 0.58 0.57 0.57 0.56 0.57 0.54 0.54 0.52 0.45 0.34 0.29 0.28 0.28
0.28 0.23 0.19 0.37 0.38 0.29 0.36 0.43 0.44 0.48 0.50 0.47 0.49 0.53 0.50 0.45 0.46 0.49 0.54 0.57 0.59 0.58 0.61 0.69 0.75 0.72 0.66 0.62 0.64 0.62 0.59 0.56 0.55 0.55 0.55 0.52 0.50 0.47 0.35 0.31 0.29 0.28 0.28 0.27
0.29 0.26 0.36 0.40 0.40 0.45 0.47 0.43 0.45 0.47 0.54 0.51 0.50 0.50 0.54 0.54 0.52 0.53 0.56 0.60 0.64 0.65 0.67 0.73 0.80 0.74 0.67 0.66 0.65 0.61 0.58 0.54 0.53 0.53 0.50 0.48 0.42 0.32 0.30 0.29 0.27 0.27 0.26 0.26
0.32 0.33 0.36 0.39 0.45 0.48 0.50 0.48 0.51 0.53 0.53 0.57 0.55 0.57 0.55 0.57 0.58 0.58 0.62 0.65 0.69 0.72 0.71 0.71 0.75 0.73 0.72 0.70 0.67 0.61 0.57 0.54 0.51 0.49 0.47 0.44 0.36 0.33 0.30 0.29 0.27 0.27 0.27 0.26
0.33 0.36 0.39 0.42 0.46 0.45 0.43 0.50 0.51 0.55 0.56 0.55 0.58 0.61 0.67 0.69 0.70 0.71 0.73 0.78 0.78 0.78 0.76 0.75 0.79 0.75 0.76 0.73 0.70 0.62 0.58 0.54 0.51 0.48 0.46 0.40 0.37 0.35 0.34 0.33 0.31 0.29 0.29 0.28
0.23 0.33 0.29 0.29 0.37 0.46 0.49 0.50 0.50 0.51 0.54 0.58 0.59 0.59 0.65 0.69 0.73 0.74 0.74 0.78 0.79 0.80 0.81 0.81 0.83 0.82 0.81 0.77 0.72 0.67 0.62 0.56 0.51 0.48 0.46 0.42 0.39 0.37 0.37 0.36 0.34 0.34 0.34 0.32
0.30 0.32 0.29 0.26 0.27 0.29 0.43 0.49 0.55 0.55 0.56 0.56 0.60 0.62 0.63 0.64 0.64 0.65 0.67 0.68 0.68 0.70 0.76 0.80 0.82 0.83 0.86 0.82 0.76 0.70 0.66 0.62 0.56 0.52 0.47 0.41 0.37 0.36 0.34 0.36 0.38 0.38 0.38 0.37
0.41 0.35 0.29 0.29 0.25 0.28 0.29 0.39 0.55 0.61 0.61 0.58 0.58 0.60 0.61 0.60 0.61 0.60 0.59 0.61 0.64 0.64 0.66 0.69 0.72 0.76 0.84 0.85 0.81 0.77 0.72 0.68 0.63 0.59 0.55 0.49 0.45 0.42 0.39 0.37 0.35 0.36 0.40 0.40
0.41 0.43 0.41 0.40 0.36 0.30 0.32 0.34 0.48 0.59 0.61 0.59 0.59 0.57 0.57 0.57 0.57 0.57 0.59 0.59 0.58 0.59 0.60 0.64 0.65 0.68 0.73 0.76 0.78 0.79 0.77 0.75 0.71 0.66 0.61 0.55 0.52 0.51 0.50 0.47 0.43 0.40 0.39 0.37
0.44 0.45 0.44 0.42 0.42 0.41 0.37 0.35 0.49 0.58 0.61 0.62 0.59 0.57 0.55 0.56 0.56 0.57 0.59 0.58 0.54 0.52 0.55 0.57 0.60 0.67 0.71 0.71 0.70 0.72 0.75 0.76 0.76 0.72 0.68 0.62 0.59 0.56 0.53 0.51 0.48 0.46 0.43 0.39
0.41 0.39 0.42 0.42 0.42 0.45 0.41 0.41 0.56 0.59 0.60 0.63 0.61 0.59 0.57 0.55 0.55 0.55 0.55 0.56 0.57 0.56 0.56 0.56 0.58 0.64 0.69 0.70 0.70 0.70 0.70 0.71 0.73 0.72 0.71 0.70 0.64 0.60 0.56 0.55 0.53 0.50 0.46 0.43
0.51 0.50 0.49 0.48 0.48 0.46 0.48 0.52 0.58 0.60 0.60 0.64 0.62 0.58 0.56 0.54 0.52 0.53 0.54 0.54 0.53 0.52 0.52 0.53 0.56 0.60 0.65 0.67 0.68 0.67 0.67 0.66 0.66 0.66 0.67 0.66 0.67 0.66 0.63 0.62 0.56 0.53 0.51 0.47
0.51 0.51 0.52 0.52 0.52 0.54 0.54 0.56 0.57 0.60 0.62 0.62 0.60 0.58 0.58 0.56 0.53 0.52 0.51 0.52 0.51 0.50 0.51 0.52 0.54 0.57 0.60 0.62 0.63 0.63 0.63 0.63 0.63 0.64 0.64 0.64 0.64 0.65 0.65 0.64 0.62 0.58 0.53 0.49
0.50 0.52 0.53 0.52 0.54 0.53 0.53 0.54 0.54 0.53 0.54 0.54 0.52 0.48 0.45 0.45 0.43 0.40 0.42 0.44 0.50 0.53 0.57 0.57 0.56 0.56 0.58 0.60 0.61 0.60 0.60 0.60 0.60 0.62 0.63 0.63 0.63 0.63 0.63 0.63 0.62 0.58 0.55 0.53
0.48 0.50 0.50 0.51 0.51 0.52 0.48 0.43 0.43 0.46 0.42 0.38 0.37 0.36 0.36 0.37 0.38 0.37 0.36 0.35 0.39 0.47 0.55 0.56 0.56 0.57 0.59 0.58 0.56 0.58 0.59 0.60 0.60 0.61 0.61 0.61 0.61 0.62 0.62 0.61 0.61 0.59 0.58 0.52
0.47 0.48 0.49 0.50 0.50 0.48 0.47 0.47 0.48 0.40 0.37 0.37 0.37 0.37 0.35 0.34 0.33 0.32 0.34 0.32 0.36 0.37 0.40 0.41 0.43 0.45 0.47 0.49 0.50 0.52 0.53 0.55 0.60 0.61 0.60 0.60 0.60 0.59 0.60 0.60 0.59 0.59 0.58 0.55
0.42 0.47 0.49 0.49 0.49 0.50 0.48 0.39 0.38 0.36 0.34 0.38 0.40 0.38 0.35 0.33 0.31 0.29 0.26 0.30 0.30 0.31 0.34 0.35 0.37 0.40 0.41 0.41 0.42 0.45 0.48 0.52 0.53 0.58 0.58 0.58 0.59 0.59 0.59 0.58 0.58 0.58 0.57 0.55
0.35 0.43 0.48 0.50 0.50 0.49 0.48 0.50 0.46 0.39 0.37 0.39 0.39 0.39 0.37 0.34 0.31 0.31 0.29 0.29 0.28 0.28 0.29 0.33 0.34 0.36 0.39 0.39 0.38 0.38 0.42 0.45 0.47 0.51 0.56 0.57 0.57 0.57 0.57 0.57 0.57 0.57 0.55 0.48
0.34 0.40 0.46 0.47 0.46 0.46 0.48 0.47 0.43 0.45 0.40 0.35 0.34 0.35 0.36 0.36 0.32 0.31 0.30 0.30 0.29 0.29 0.28 0.30 0.33 0.35 0.34 0.36 0.37 0.38 0.41 0.43 0.46 0.48 0.49 0.53 0.55 0.56 0.56 0.56 0.56 0.54 0.47 0.47
0.29 0.35 0.42 0.47 0.47 0.48 0.44 0.43 0.41 0.36 0.34 0.34 0.33 0.33 0.33 0.32 0.32 0.32 0.31 0.31 0.30 0.29 0.28 0.29 0.31 0.32 0.32 0.33 0.35 0.36 0.38 0.40 0.43 0.46 0.48 0.49 0.51 0.54 0.55 0.55 0.53 0.47 0.44 0.41
0.28 0.33 0.37 0.43 0.47 0.48 0.46 0.38 0.35 0.35 0.37 0.32 0.29 0.30 0.30 0.30 0.30 0.30 0.30 0.30 0.29 0.29 0.28 0.27 0.28 0.28 0.29 0.30 0.33 0.35 0.36 0.39 0.41 0.43 0.46 0.47 0.48 0.49 0.49 0.48 0.43 0.40 0.38 0.35
Wind_Speed
11 12 12 13 14 19 22 25 20 22 22 21 21 22 21 20 18 17 18 19 21 22 22 23 24 24 25 24 24 24 23 23 24 24 24 23 23 22 21 20 19 18 17 16
9 10 13 15 17 18 22 23 24 25 27 23 19 18 18 22 22 22 22 20 21 20 21 21 21 22 23 24 23 23 22 21 21 22 22 21 21 20 19 18 17 15 14 14
12 11 11 14 19 20 18 19 22 23 24 18 18 18 19 20 23 24 23 22 22 22 21 20 20 20 20 20 21 21 21 20 20 19 18 18 17 16 15 14 13 13 11 10
11 10 11 12 11 13 17 18 20 21 21 20 21 20 19 18 19 22 23 23 22 22 21 20 20 20 20 19 18 18 17 16 16 15 15 14 14 13 12 12 11 9 9 8
8 10 13 11 10 10 12 14 14 18 20 21 20 20 20 19 18 18 20 21 21 20 20 19 19 19 19 19 18 17 17 16 15 14 13 13 12 11 11 10 9 8 7 7
8 8 9 9 8 8 9 11 11 12 14 16 14 15 17 19 20 19 19 20 20 19 19 18 18 18 17 17 17 17 16 15 14 14 13 12 11 10 10 9 8 7 7 7
10 9 10 11 10 8 7 10 12 12 13 13 13 14 14 14 15 16 17 18 18 18 18 18 17 17 16 16 15 15 15 14 13 13 13 12 11 11 10 9 8 8 8 8
7 8 8 5 5 7 8 11 12 13 13 13 12 11 11 11 12 12 14 15 17 17 17 17 17 17 16 15 15 15 14 14 14 14 13 13 13 12 11 10 10 10 10 10
10 9 9 11 12 12 13 14 14 13 12 10 8 8 8 9 11 11 13 14 15 15 16 17 16 16 16 16 15 15 15 14 14 14 14 14 14 13 12 12 11 11 12 12
13 12 13 14 14 13 14 16 16 15 12 11 10 9 9 10 11 12 12 13 14 15 16 17 17 18 17 16 16 16 16 16 15 15 16 15 15 15 14 14 14 13 14 14
18 19 21 18 17 19 21 20 19 18 15 14 11 10 9 10 10 11 12 11 12 14 18 18 19 18 17 17 17 17 17 17 17 17 18 17 17 17 17 16 16 16 16 17
15 16 18 21 24 24 22 20 20 20 18 16 15 15 14 13 12 12 12 13 13 14 11 14 20 21 20 19 18 17 18 18 18 18 19 19 19 19 19 19 19 19 19 19
20 23 24 26 27 28 26 25 23 21 20 19 17 16 16 15 15 16 16 16 16 17 16 15 14 15 22 21 19 19 20 20 20 20 20 21 21 21 20 20 21 21 21 21
24 23 23 24 27 29 32 32 28 23 21 19 18 17 16 17 17 17 18 18 19 19 19 19 19 20 19 20 21 21 21 22 22 22 22 22 22 22 22 22 22 22 23 23
21 24 28 30 30 31 31 33 31 26 23 20 18 17 17 17 18 18 19 19 19 19 20 20 21 21 22 23 23 24 24 24 23 24 24 24 25 25 24 24 24 24 24 24
24 26 28 29 33 35 33 31 32 28 26 22 20 18 18 18 19 20 19 19 19 19 20 20 22 22 23 24 24 25 26 27 27 26 26 26 26 25 25 25 25 25 25 26
23 23 26 27 28 28 24 24 27 25 25 22 21 20 19 18 18 17 18 18 19 20 20 20 21 21 22 23 24 25 26 27 28 29 29 30 30 30 29 29 28 27 27 27
20 21 21 19 21 11 5 15 16 18 21 20 20 19 18 17 16 16 16 17 17 18 19 20 21 21 22 23 24 24 25 26 28 30 30 30 31 31 31 31 30 29 29 28
20 19 17 15 13 7 5 6 9 11 14 17 18 17 16 15 15 14 14 15 15 16 17 18 18 19 20 22 23 25 26 27 27 28 29 30 31 31 31 31 30 30 29 29
19 17 15 14 12 9 9 8 8 9 11 14 14 15 15 15 15 15 15 14 14 15 16 16 17 18 20 21 22 24 26 27 29 29 29 30 30 30 31 31 31 30 29 29
19 18 15 14 12 10 9 10 10 9 10 10 12 13 13 14 14 14 14 14 14 15 15 15 16 17 18 20 21 22 24 25 27 28 28 29 29 29 30 30 30 30 30 29
20 18 16 15 14 14 12 11 11 10 9 9 9 10 11 11 12 12 12 12 14 14 15 15 16 17 18 19 20 21 22 23 24 25 27 27 27 27 28 28 28 28 28 27
21 19 18 15 15 15 15 13 11 10 10 10 10 10 10 10 11 11 11 12 12 13 14 15 16 16 17 17 18 20 20 20 20 21 22 24 26 26 25 25 25 25 25 25
22 21 19 17 15 15 16 19 16 14 12 12 12 11 11 10 10 10 11 12 12 13 13 14 15 16 16 17 17 18 19 19 19 19 19 20 21 23 23 24 23 22 22 22
24 22 21 18 16 15 15 14 16 17 15 13 12 12 12 11 11 11 11 11 12 12 13 13 13 14 15 16 17 17 18 18 18 18 18 18 18 18 19 19 19 19 19 19
24 23 21 20 19 16 16 15 17 17 17 16 14 13 12 12 12 12 12 12 12 13 13 13 14 14 14 15 16 16 16 17 17 17 17 16 16 15 14 13 14 15 16 17
22 22 22 21 20 19 18 16 16 16 17 17 16 15 14 13 13 13 13 13 14 14 14 14 14 15 15 16 16 16 16 16 16 16 15 14 14 13 13 14 15 16 18 19
Wind_Direction
242 243 237 239 236 232 235 245 248 266 260 270 263 265 260 252 240 232 230 231 232 235 238 242 246 249 250 254 257 259 260 259 257 257 258 259 260 261 262 264 266 269 273 277
251 253 246 252 249 246 246 246 255 262 268 270 269 270 259 243 238 238 235 236 235 237 238 243 248 251 251 254 256 259 259 259 257 256 257 257 256 257 257 259 262 265 271 276
254 257 260 262 251 244 252 254 252 256 262 270 271 262 256 248 241 240 238 238 236 238 240 244 248 250 253 254 255 256 256 257 258 257 255 253 250 249 250 252 257 261 266 272
250 259 257 257 257 253 248 257 254 263 267 266 263 262 263 255 246 240 236 238 238 240 242 246 250 250 251 252 253 253 253 254 252 251 247 244 241 241 243 246 249 249 259 270
246 251 270 271 263 257 256 270 264 264 270 269 267 264 259 250 245 241 234 234 237 239 241 247 249 249 249 249 249 249 249 249 247 242 237 235 235 235 236 232 235 244 254 269
248 258 263 261 266 268 267 272 274 277 281 277 266 260 259 246 244 241 239 235 236 237 242 245 246 245 245 244 244 244 244 242 239 234 231 230 229 225 222 224 228 241 257 276
248 254 271 265 274 265 266 265 290 287 289 286 268 261 265 244 243 243 238 233 232 237 242 244 241 240 241 241 241 240 238 236 233 229 228 227 222 219 220 226 235 247 263 278
246 250 268 262 275 260 268 286 290 291 290 291 277 268 257 243 238 234 229 230 235 240 242 239 237 237 239 239 238 235 233 232 231 231 228 223 220 224 227 233 243 255 268 280
242 252 265 272 275 275 281 282 286 290 290 285 277 262 245 236 233 233 233 236 239 239 238 236 236 235 237 237 235 233 232 231 231 228 226 224 226 229 236 243 252 261 271 279
270 269 271 275 279 279 287 285 282 280 280 273 270 257 251 243 238 237 238 240 241 240 239 238 236 237 238 237 235 234 234 234 232 232 230 231 234 239 244 251 258 266 273 279
271 276 280 274 276 281 286 286 279 271 270 265 259 251 248 249 243 242 240 245 245 249 244 241 238 237 237 237 236 236 237 235 235 235 235 238 241 246 251 257 262 268 274 279
275 280 278 276 278 279 279 279 280 267 262 258 255 249 249 250 249 248 247 249 252 253 262 246 242 240 238 240 240 240 241 240 240 240 241 243 247 252 256 260 264 268 274 279
282 284 283 281 278 274 268 272 274 265 255 252 252 250 250 251 253 254 255 256 257 256 256 253 247 246 236 238 241 243 244 244 244 244 246 248 251 255 260 263 266 268 273 278
289 288 287 286 284 281 272 264 262 258 250 248 247 249 251 254 258 260 260 261 261 260 258 255 252 249 246 242 245 247 247 247 248 248 250 252 255 257 260 263 267 270 274 277
292 292 292 291 292 284 279 256 246 245 241 242 246 249 253 256 260 263 264 265 263 261 260 257 255 254 251 249 248 249 250 251 252 252 254 255 257 259 262 265 268 271 275 278
298 299 302 298 295 288 276 253 234 237 234 237 242 248 255 260 262 262 265 265 263 263 263 260 258 257 255 253 252 252 253 252 253 255 255 257 258 260 262 265 268 271 274 277
303 309 313 310 308 297 270 232 220 230 230 234 241 249 255 261 263 264 266 265 265 265 264 263 262 260 258 256 255 256 256 256 256 257 258 258 259 261 263 265 268 271 274 277
304 306 313 318 331 320 245 195 217 223 230 236 241 247 254 257 259 264 267 269 269 268 267 267 265 263 260 259 258 259 260 260 260 260 260 260 261 262 263 265 266 269 272 276
313 305 307 314 323 314 275 264 236 233 233 239 241 245 248 252 257 263 268 270 272 272 272 271 269 265 265 264 263 263 263 263 264 264 263 261 260 261 262 264 264 267 270 274
314 310 301 296 298 290 281 272 262 251 248 239 239 243 248 253 259 264 268 269 273 275 277 276 273 271 270 270 269 269 268 267 265 265 265 263 262 261 262 261 263 265 269 272
308 308 300 288 282 280 273 263 268 258 252 246 240 244 250 255 260 265 268 269 274 278 280 280 279 278 276 275 274 275 275 272 268 267 265 264 263 263 262 263 264 265 268 271
296 297 299 290 274 266 269 264 261 247 246 245 247 249 253 258 263 267 268 271 276 281 281 282 282 283 281 281 280 279 280 279 276 270 267 265 264 264 263 263 263 264 266 270
286 286 288 288 276 265 258 252 250 246 251 251 252 255 259 264 266 267 270 277 282 286 286 287 287 287 286 285 283 283 283 281 281 278 273 269 265 263 263 263 263 263 265 269
280 277 280 279 278 269 259 250 248 247 251 254 253 255 259 264 266 264 276 280 285 290 291 293 294 294 291 289 288 287 286 283 283 281 278 275 272 266 263 262 261 261 264 270
274 271 269 268 270 271 263 251 244 242 248 254 258 257 259 262 263 270 276 282 287 290 293 297 300 300 299 297 294 291 291 287 285 285 282 280 278 272 267 260 255 257 266 271
271 266 264 261 260 261 260 256 249 246 246 250 255 254 259 263 267 271 275 280 286 290 293 296 299 302 303 303 302 298 295 289 288 286 284 280 277 274 265 254 254 264 271 276
272 265 261 259 257 254 254 253 250 248 245 246 249 252 257 263 269 271 275 279 284 288 289 292 297 301 304 305 305 304 299 294 290 286 285 281 274 268 262 262 267 273 278 283